Date,TemperatureHighF,TemperatureAvgF,TemperatureLowF,DewpointHighF,DewpointAvgF,DewpointLowF,HumidityHigh,HumidityAvg,HumidityLow,PressureMaxIn,PressureMinIn,WindSpeedMaxMPH,WindSpeedAvgMPH,GustSpeedMaxMPH,PrecipitationSumIn
2014-1-1,66.9,54.8,45.3,8.6,4.3,-0.2,15,13,10,30.08,29.99,5,1,5,0.00
2014-1-2,66.0,57.7,52.5,8.6,5.4,3.0,13,12,10,30.05,29.93,13,3,13,0.00
2014-1-3,67.5,56.9,49.1,9.0,5.2,1.8,14,12,10,29.96,29.81,8,1,8,0.00
2014-1-4,67.3,56.1,47.1,19.1,5.8,2.4,32,13,10,29.96,29.87,17,2,17,0.00
2014-1-5,65.7,57.4,52.2,8.6,5.3,2.8,13,12,10,30.08,29.93,19,5,19,0.00
2014-1-6,63.3,55.5,50.2,7.8,4.5,2.5,14,12,11,30.16,30.02,10,3,10,0.00
2014-1-7,61.9,52.7,47.1,36.4,9.7,0.4,53,20,11,30.08,29.99,6,1,6,0.00
2014-1-8,58.1,52.8,48.6,46.0,34.5,21.9,71,51,25,30.08,29.99,6,1,6,0.00
2014-1-9,61.3,52.8,48.4,46.4,23.4,1.7,70,38,12,30.11,30.05,10,2,10,0.00
2014-1-10,63.0,52.6,46.0,32.7,17.1,4.1,48,27,11,30.16,30.02,6,1,6,0.00
2014-1-11,54.7,50.7,47.8,44.5,34.1,17.9,69,54,28,30.14,30.02,9,1,9,0.00
2014-1-12,58.8,51.0,43.9,32.6,14.9,2.1,57,29,12,30.22,30.11,10,2,10,0.00
2014-1-13,64.6,55.7,47.7,8.6,4.7,0.8,14,13,10,30.31,30.16,19,5,19,0.00
2014-1-14,68.9,60.7,54.3,10.1,6.5,3.7,13,11,10,30.28,30.14,15,5,15,0.00
2014-1-15,70.7,64.1,56.8,10.7,7.7,4.8,12,11,9,30.16,30.02,14,6,17,0.00
2014-1-16,72.3,64.4,57.0,10.7,7.7,4.9,12,11,9,30.08,29.96,17,4,17,0.00
2014-1-17,69.4,61.4,55.2,10.5,6.8,3.7,13,11,10,30.02,29.96,15,3,15,0.00
2014-1-18,72.1,62.1,53.2,10.7,7.0,3.7,13,11,9,30.02,29.87,8,3,13,0.00
2014-1-19,68.5,60.1,53.8,9.7,6.5,3.7,13,12,10,29.96,29.87,13,3,13,0.00
2014-1-20,70.3,60.9,52.3,10.7,6.5,3.0,13,11,9,30.05,29.90,13,3,13,0.00
2014-1-21,69.8,59.9,53.4,10.7,6.3,3.7,13,12,9,30.08,29.96,14,2,14,0.00
2014-1-22,70.5,58.4,48.4,10.7,5.7,2.0,19,12,9,29.96,29.72,8,1,8,0.00
2014-1-23,66.6,57.1,47.5,23.3,6.4,2.5,37,13,10,29.84,29.66,18,4,18,0.00
2014-1-24,68.9,56.9,48.9,17.7,6.2,1.8,28,13,10,30.08,29.81,7,1,7,0.00
2014-1-25,73.8,61.3,52.0,12.3,7.3,2.7,18,12,8,30.05,29.90,10,2,10,0.00
2014-1-26,70.5,57.6,50.2,36.0,12.6,2.5,56,21,9,29.93,29.81,6,1,6,0.00
2014-1-27,60.6,52.2,48.2,41.8,33.5,14.1,70,52,17,29.99,29.87,8,2,8,0.00
2014-1-28,64.8,56.8,51.3,47.7,36.2,20.0,71,49,18,30.05,29.96,5,1,5,0.00
2014-1-29,59.0,56.9,52.7,53.3,50.7,47.5,86,80,71,30.02,29.78,6,1,6,0.00
2014-1-30,53.6,52.1,49.5,48.3,41.4,20.7,85,69,31,29.78,29.63,9,2,9,0.04
2014-1-31,61.2,50.2,43.5,26.2,11.8,-0.2,46,24,11,29.90,29.69,9,3,9,0.00
2014-2-1,59.0,47.4,40.3,23.2,9.8,0.2,40,23,12,29.96,29.84,11,3,11,0.00
2014-2-2,49.8,45.8,43.0,26.8,20.3,0.2,47,37,14,29.84,29.63,14,4,14,0.20
2014-2-3,55.6,45.5,39.4,24.6,15.4,1.8,52,33,12,29.84,29.75,10,2,10,0.00
2014-2-4,54.7,45.0,39.7,20.0,12.8,1.5,42,29,13,29.93,29.81,9,1,9,0.00
2014-2-5,53.1,45.5,38.8,28.5,18.3,2.7,50,36,13,29.96,29.78,9,2,9,0.12
2014-2-6,53.8,48.8,44.6,44.2,37.3,25.8,71,65,46,29.78,29.63,9,1,9,0.43
2014-2-7,53.2,52.1,50.9,47.1,43.3,36.3,80,72,55,29.81,29.69,17,3,17,0.75
2014-2-8,64.4,54.3,53.1,56.8,47.5,45.3,91,78,74,29.87,29.75,13,5,13,2.17
2014-2-9,58.1,57.4,56.3,56.1,55.2,54.1,93,92,91,29.87,29.78,11,4,11,2.64
2014-2-10,60.1,55.0,51.6,58.0,53.2,50.0,94,94,92,29.99,29.78,11,1,11,0.04
2014-2-11,61.7,52.3,48.2,59.2,43.8,29.5,94,76,35,29.93,29.84,6,0,6,0.00
2014-2-12,59.7,53.0,48.2,45.8,34.2,23.0,71,51,25,29.96,29.84,4,0,4,0.00
2014-2-13,68.5,58.3,52.0,53.6,37.3,24.7,72,49,20,29.90,29.75,3,0,3,0.00
2014-2-14,65.8,57.1,53.8,56.3,40.7,30.9,75,55,32,29.84,29.69,3,0,3,0.00
2014-2-15,57.7,55.1,52.7,47.0,37.5,31.8,70,52,38,29.69,29.63,12,1,12,0.08
2014-2-16,62.6,54.5,48.7,48.7,25.0,3.4,78,41,11,29.84,29.66,10,2,10,0.04
2014-2-17,61.7,51.6,43.7,27.5,15.6,2.8,47,26,11,29.78,29.69,10,2,10,0.00
2014-2-18,63.1,53.4,47.7,32.2,22.9,6.0,47,32,11,29.81,29.66,11,2,11,0.00
2014-2-19,64.4,55.3,48.2,40.5,19.6,2.5,59,30,11,29.78,29.69,12,2,12,0.00
2014-2-20,68.2,55.4,44.8,20.9,9.5,2.8,36,17,10,29.78,29.69,8,2,8,0.00
2014-2-21,69.4,57.0,49.1,27.6,10.0,2.5,40,17,10,29.69,29.52,7,2,7,0.00
2014-2-22,66.2,54.6,47.8,33.7,22.5,6.1,54,32,10,29.57,29.46,7,1,7,0.00
2014-2-23,67.3,54.7,47.5,45.5,28.1,11.1,67,40,12,29.57,29.49,6,1,6,0.00
2014-2-24,74.3,58.1,48.6,34.4,20.1,6.0,51,27,8,29.57,29.46,7,1,7,0.00
2014-2-25,59.0,53.1,50.5,42.9,32.7,22.0,68,48,25,29.54,29.46,13,2,13,0.00
2014-2-26,58.3,55.3,51.4,49.9,36.7,26.5,75,50,35,29.49,29.22,15,3,15,0.91
2014-2-27,63.7,56.8,53.6,48.1,26.5,4.8,74,36,12,29.43,29.07,17,4,17,0.08
2014-2-28,59.2,54.8,51.4,44.7,32.5,4.6,63,44,12,29.07,28.92,14,3,14,0.94
2014-3-1,65.3,56.3,51.1,34.6,22.0,6.5,48,29,10,29.34,29.01,17,3,17,0.04
2014-3-2,57.4,54.5,50.9,50.6,35.8,27.8,79,50,36,29.69,29.31,14,2,14,0.08
2014-3-3,58.5,54.2,51.6,36.5,29.3,21.7,54,39,25,29.66,29.54,10,2,10,0.08
2014-3-4,61.0,56.1,52.5,48.9,37.7,30.7,70,51,34,29.63,29.54,9,1,9,0.08
2014-3-5,64.6,59.1,55.0,50.8,39.1,20.0,71,49,20,29.63,29.49,9,2,9,0.39
2014-3-6,63.5,57.3,51.3,55.5,39.7,18.8,82,57,18,29.69,29.54,9,2,9,0.04
2014-3-7,66.9,55.9,48.0,32.4,18.4,4.6,51,27,10,29.69,29.60,9,3,9,0.00
2014-3-8,72.5,59.0,49.3,38.9,20.7,6.0,52,28,9,29.69,29.60,8,2,8,0.00
2014-3-9,73.6,62.5,56.1,24.4,14.0,5.8,27,15,8,29.69,29.57,8,2,8,0.00
2014-3-10,67.6,58.6,52.3,39.4,17.0,4.6,52,23,10,29.75,29.57,13,3,13,0.00
2014-3-11,71.4,60.1,49.3,10.7,6.3,2.1,14,12,9,29.69,29.49,16,4,16,0.00
2014-3-12,73.8,62.7,53.6,11.1,7.2,3.7,13,11,8,29.63,29.49,15,5,16,0.00
2014-3-13,75.2,61.9,51.6,34.1,11.8,3.7,50,17,8,29.57,29.46,9,2,9,0.00
2014-3-14,69.4,58.1,50.9,35.1,22.6,6.0,51,30,10,29.69,29.52,8,2,8,0.00
2014-3-15,78.1,62.0,52.0,29.2,17.3,6.3,37,20,8,29.81,29.66,6,1,6,0.00
2014-3-16,71.8,59.0,50.7,30.8,16.1,3.9,45,20,9,29.78,29.66,7,1,7,0.00
2014-3-17,69.1,56.7,49.1,32.3,15.0,2.5,46,22,10,29.69,29.46,10,3,10,0.00
2014-3-18,71.2,58.4,47.8,17.5,6.7,1.0,27,13,9,29.49,29.37,10,2,10,0.00
2014-3-19,75.2,61.1,49.6,11.1,6.5,2.4,14,11,8,29.57,29.43,10,2,10,0.00
2014-3-20,69.4,58.2,48.7,25.5,10.1,2.7,40,16,10,29.54,29.40,6,1,6,0.00
2014-3-21,60.4,52.7,48.0,32.3,24.8,10.2,51,36,14,29.49,29.40,10,3,10,0.00
2014-3-22,63.3,53.1,46.6,33.6,23.7,6.7,51,35,11,29.60,29.46,8,2,8,0.00
2014-3-23,65.8,54.3,48.0,32.3,23.1,6.7,51,34,10,29.66,29.54,7,2,7,0.00
2014-3-24,72.9,56.2,47.3,38.4,23.2,5.8,53,33,9,29.63,29.46,6,1,6,0.00
2014-3-25,59.4,53.5,47.7,46.0,34.0,26.9,72,48,31,29.52,29.31,13,3,13,0.08
2014-3-26,60.4,54.2,50.5,46.9,34.2,10.9,72,49,17,29.43,29.25,14,4,14,0.43
2014-3-27,61.5,55.1,49.6,41.9,26.6,6.0,60,38,11,29.57,29.40,11,3,11,0.12
2014-3-28,68.2,57.7,52.9,38.2,26.4,6.9,54,33,10,29.63,29.52,13,3,13,0.00
2014-3-29,58.1,54.9,49.5,49.0,38.3,27.3,74,55,36,29.57,29.43,13,2,13,1.02
2014-3-30,59.4,52.1,46.6,34.2,21.8,5.1,52,33,12,29.54,29.46,13,3,13,0.00
2014-3-31,53.6,48.8,46.2,35.9,26.1,13.5,57,43,20,29.49,29.22,10,3,13,0.59
2014-4-1,54.3,47.8,45.1,33.6,28.4,7.3,55,48,16,29.31,29.13,11,3,11,0.75
2014-4-2,60.8,50.3,44.4,33.6,20.9,3.7,59,36,11,29.40,29.16,10,2,10,0.04
2014-4-3,61.3,53.0,47.3,32.8,22.6,5.6,52,34,12,29.40,29.28,8,3,9,0.00
2014-4-4,56.8,51.7,48.0,38.1,28.7,18.1,58,42,25,29.28,29.19,12,2,12,0.28
2014-4-5,66.9,55.2,46.8,38.9,21.0,4.8,64,33,10,29.37,29.22,10,2,10,0.04
2014-4-6,75.0,61.2,49.1,35.3,18.0,6.1,47,23,8,29.40,29.22,8,1,8,0.00
2014-4-7,81.9,68.3,57.2,25.6,12.8,6.5,28,13,7,29.25,29.13,12,2,12,0.00
2014-4-8,79.0,66.3,53.4,27.1,12.8,6.4,36,13,7,29.19,29.04,6,2,6,0.00
2014-4-9,64.2,55.7,51.4,48.3,32.5,16.4,75,45,16,29.16,28.98,9,2,9,0.00
2014-4-10,75.7,58.5,50.5,48.5,29.6,8.5,73,42,8,29.04,28.84,6,2,6,0.00
2014-4-11,61.7,54.5,51.8,46.2,33.6,20.6,73,48,21,28.95,28.78,10,3,10,0.00
2014-4-12,60.4,54.1,51.3,33.8,26.2,14.4,50,35,17,28.87,28.75,14,6,14,0.00
2014-4-13,68.9,57.2,50.5,36.6,24.3,8.6,53,31,10,28.92,28.75,11,3,11,0.00
2014-4-14,66.6,57.0,51.6,43.1,30.5,11.1,67,42,12,28.98,28.84,8,2,8,0.00
2014-4-15,66.0,56.8,51.6,37.0,26.7,11.4,55,35,13,28.90,28.66,9,3,9,0.00
2014-4-16,73.9,60.5,49.5,38.1,19.9,6.0,51,26,8,28.75,28.57,8,1,8,0.00
2014-4-17,70.7,59.8,50.9,38.1,21.2,8.3,50,26,9,28.66,28.54,11,2,11,0.00
2014-4-18,63.1,55.9,49.1,35.8,24.1,11.1,47,31,13,28.75,28.57,10,3,10,0.00
2014-4-19,65.3,55.3,48.9,37.3,27.2,10.3,53,37,13,28.87,28.66,12,4,12,0.00
2014-4-20,75.7,60.5,50.9,42.6,22.8,6.0,62,31,8,28.92,28.75,8,1,8,0.00
2014-4-21,66.9,55.2,48.6,36.6,23.4,6.9,52,31,10,28.87,28.69,11,2,11,0.00
2014-4-22,63.1,53.8,47.8,39.4,12.3,2.1,58,22,11,28.87,28.66,15,5,15,0.00
2014-4-23,68.7,55.5,44.2,27.6,8.8,-0.2,35,16,10,28.90,28.75,11,3,11,0.00
2014-4-24,63.1,56.4,51.3,46.2,31.8,24.6,67,40,24,28.87,28.66,10,3,10,0.00
2014-4-25,57.0,52.6,47.3,47.9,38.5,16.6,78,61,26,28.69,28.48,11,3,12,0.47
2014-4-26,61.5,51.5,44.1,29.3,17.3,4.0,53,30,11,28.81,28.51,15,3,15,0.00
2014-4-27,62.6,54.5,49.8,37.4,23.2,4.5,59,33,12,28.84,28.69,11,4,11,0.00
2014-4-28,72.5,59.0,47.1,26.5,15.1,5.6,41,21,9,28.92,28.75,10,2,10,0.00
2014-4-29,85.6,69.8,53.6,12.4,8.1,3.7,13,9,6,28.92,28.72,10,3,10,0.00
2014-4-30,90.3,75.4,65.1,12.5,9.7,7.1,10,8,5,28.81,28.66,14,3,14,0.00
2014-5-1,87.1,73.9,61.5,12.3,9.4,6.5,11,8,6,28.84,28.66,6,1,6,0.00
2014-5-2,70.2,61.8,55.2,38.2,15.9,4.2,52,19,9,28.84,28.69,9,2,9,0.00
2014-5-3,66.6,58.2,53.6,42.9,27.4,11.1,66,36,12,28.78,28.63,11,4,11,0.00
2014-5-4,66.4,58.1,52.7,38.1,26.8,11.7,49,32,13,28.78,28.66,13,3,13,0.00
2014-5-5,64.8,56.9,50.9,30.6,19.6,3.7,41,25,10,28.78,28.60,17,4,17,0.00
2014-5-6,70.0,57.7,48.4,28.6,12.3,4.6,38,18,9,28.66,28.45,13,3,13,0.00
2014-5-7,67.3,56.5,48.7,31.6,18.5,6.7,47,26,10,28.69,28.51,10,3,10,0.00
2014-5-8,59.9,55.6,51.1,50.6,36.0,26.9,80,49,37,28.78,28.57,10,4,10,0.00
2014-5-9,69.1,59.2,50.9,53.7,25.6,3.7,83,39,10,28.84,28.69,12,3,12,0.00
2014-5-10,68.4,57.3,47.1,25.2,12.4,3.7,39,19,10,28.81,28.60,17,4,17,0.00
2014-5-11,77.4,64.2,52.2,20.9,9.1,3.7,29,12,8,28.78,28.60,15,4,15,0.00
2014-5-12,83.1,68.8,53.4,12.4,8.3,3.7,13,10,6,28.75,28.60,10,2,10,0.00
2014-5-13,91.6,74.6,61.0,12.5,9.4,6.1,11,8,4,28.81,28.63,9,1,9,0.00
2014-5-14,91.9,77.6,64.2,12.5,9.6,6.1,11,8,4,28.81,28.66,8,2,8,0.00
2014-5-15,84.7,71.8,57.4,23.1,9.8,6.1,26,9,6,28.81,28.66,6,1,6,0.00
2014-5-16,72.9,60.7,51.4,37.3,22.5,7.5,51,27,9,28.78,28.54,10,3,10,0.00
2014-5-17,64.0,57.5,52.5,39.5,30.1,18.5,58,37,18,28.63,28.45,15,4,15,0.00
2014-5-18,70.7,60.3,53.2,36.7,18.6,4.9,48,23,9,28.60,28.42,15,4,15,0.00
2014-5-19,65.5,57.7,52.2,30.7,21.9,6.4,40,27,11,28.57,28.39,14,4,14,0.00
2014-5-20,66.2,57.4,50.2,35.2,25.1,6.9,48,31,10,28.60,28.39,12,3,12,0.00
2014-5-21,66.9,58.3,53.1,36.3,28.3,12.1,52,35,12,28.57,28.36,12,4,12,0.00
2014-5-22,64.9,56.2,52.7,41.0,32.0,15.8,63,42,15,28.54,28.33,10,4,10,0.00
2014-5-23,64.8,57.4,51.6,48.3,34.3,19.0,80,47,18,28.57,28.33,10,4,10,0.00
2014-5-24,66.2,59.0,53.2,38.3,26.8,15.5,51,31,15,28.48,28.27,10,3,10,0.00
2014-5-25,78.6,64.1,51.6,34.8,18.7,6.7,48,22,8,28.39,28.22,8,2,8,0.00
2014-5-26,77.7,64.2,51.8,30.6,17.6,8.5,37,19,8,28.33,20.33,9,2,9,0.00
2014-5-27,75.7,61.8,50.9,35.6,17.4,5.8,50,22,8,28.27,18.41,10,3,10,0.00
2014-5-28,77.7,63.8,51.4,20.6,8.9,2.5,29,12,8,18.41,18.41,15,3,15,0.00
2014-5-29,75.7,63.2,51.8,30.0,11.9,5.1,43,16,8,18.41,18.41,10,4,10,0.00
2014-5-30,59.9,53.9,50.2,34.1,29.3,20.5,51,40,24,18.41,18.41,13,5,13,0.00
2014-5-31,64.8,55.9,51.4,37.9,29.0,11.2,59,39,13,18.41,18.41,10,4,10,0.00
2014-6-1,66.7,56.7,50.7,43.6,29.7,12.1,69,41,12,18.41,18.41,8,2,8,0.00
2014-6-2,60.4,54.2,50.9,42.3,32.7,22.9,68,46,24,18.41,18.41,14,6,14,0.00
2014-6-3,64.6,55.8,50.9,44.0,31.1,11.2,75,44,13,18.41,18.41,10,4,10,0.00
2014-6-4,68.0,57.2,51.1,41.7,29.4,11.4,63,40,12,18.41,18.41,8,2,8,0.00
2014-6-5,61.9,56.3,52.2,45.7,35.8,24.9,73,49,25,18.41,18.41,10,4,10,0.00
2014-6-6,64.2,56.3,51.4,53.0,37.3,18.5,85,55,18,18.41,18.41,13,5,13,0.00
2014-6-7,67.3,57.2,51.4,44.7,30.8,12.1,75,42,12,18.41,18.41,9,4,9,0.00
2014-6-8,90.7,69.7,52.3,47.6,23.1,6.7,64,27,5,18.41,18.41,7,1,7,0.00
2014-6-9,77.5,64.4,55.9,40.9,22.3,7.5,57,24,8,18.41,18.41,9,2,9,0.00
2014-6-10,61.2,57.2,55.2,52.9,43.2,30.0,80,62,31,18.41,18.41,15,5,15,0.00
2014-6-11,61.5,57.2,53.6,49.5,38.5,26.6,78,52,28,18.41,18.41,15,6,15,0.00
2014-6-12,66.2,57.2,51.6,44.5,30.9,13.4,74,42,13,18.41,18.41,17,5,17,0.00
2014-6-13,78.1,62.9,51.6,38.2,21.0,8.5,54,26,8,18.41,18.41,10,2,10,0.00
2014-6-14,77.2,62.4,53.1,32.5,20.9,7.1,42,24,8,18.41,18.41,9,2,9,0.00
2014-6-15,68.7,57.8,51.6,36.1,26.2,8.5,53,34,10,18.41,18.41,13,4,13,0.00
2014-6-16,64.0,56.7,51.4,36.3,24.8,10.8,54,33,13,18.41,18.41,14,5,14,0.00
2014-6-17,73.2,61.5,49.1,31.4,16.8,6.0,46,22,9,18.41,18.41,10,2,10,0.00
2014-6-18,80.2,65.6,53.8,30.7,13.6,4.2,41,15,7,18.41,18.41,9,2,9,0.00
2014-6-19,68.0,59.3,51.8,38.9,25.9,12.1,55,31,12,18.41,18.41,10,3,10,0.00
2014-6-20,76.1,62.7,52.5,42.4,23.6,6.7,56,29,8,18.41,18.41,9,2,9,0.00
2014-6-21,66.6,57.9,52.3,34.6,25.3,11.5,50,32,12,18.41,18.41,11,4,11,0.00
2014-6-22,65.3,57.4,52.0,36.2,27.9,12.7,53,36,13,18.41,18.41,12,4,12,0.00
2014-6-23,71.4,60.6,52.7,41.3,24.0,6.4,63,31,9,18.41,18.41,10,4,10,0.00
2014-6-24,76.5,64.3,54.7,35.4,21.1,8.6,43,22,8,18.41,18.41,10,3,10,0.00
2014-6-25,65.5,59.3,55.6,49.5,40.4,28.8,73,52,26,18.41,18.41,11,3,11,0.00
2014-6-26,66.6,60.7,57.2,56.7,38.9,20.1,82,50,17,18.41,18.41,10,3,10,0.00
2014-6-27,69.6,61.9,56.5,54.2,39.3,21.3,79,47,20,18.41,18.41,10,3,10,0.00
2014-6-28,79.0,64.9,56.7,49.6,28.1,8.3,71,34,7,18.41,18.41,10,3,10,0.00
2014-6-29,80.2,66.7,54.7,38.8,21.1,8.5,48,22,7,18.41,18.41,8,2,8,0.00
2014-6-30,78.3,64.7,57.0,47.9,25.2,8.5,70,27,8,18.41,18.41,13,3,13,0.00
2014-7-1,61.9,57.3,55.4,55.1,44.8,30.9,88,66,32,18.41,18.41,14,6,14,0.00
2014-7-2,67.3,59.2,54.1,51.9,38.4,17.2,84,52,17,18.41,18.41,11,5,11,0.00
2014-7-3,68.2,59.6,54.5,39.8,30.4,12.7,56,37,12,18.41,18.41,11,4,11,0.00
2014-7-4,66.0,58.6,55.0,45.4,33.4,16.1,66,42,15,18.41,18.41,11,3,11,0.00
2014-7-5,70.3,59.8,54.0,39.4,29.6,12.1,54,36,12,18.41,18.41,9,3,9,0.00
2014-7-6,70.0,60.4,54.0,48.3,30.2,12.7,68,38,12,18.41,18.41,8,2,8,0.00
2014-7-7,69.3,59.1,55.0,45.7,36.1,17.6,65,45,15,18.41,18.41,8,2,8,0.00
2014-7-8,63.9,58.7,56.1,52.2,40.4,26.8,78,54,25,18.41,18.41,11,5,11,0.00
2014-7-9,64.2,58.6,55.9,54.2,42.9,26.4,82,60,24,18.41,18.41,15,5,15,0.00
2014-7-10,66.2,60.3,57.2,52.2,40.5,26.1,79,53,23,18.41,18.41,17,6,17,0.00
2014-7-11,66.6,60.5,57.4,50.9,37.2,16.9,77,47,15,18.41,18.41,12,5,12,0.00
2014-7-12,68.0,60.6,56.7,43.0,34.0,20.6,60,39,17,18.41,18.41,11,4,11,0.00
2014-7-13,72.3,62.4,55.6,53.6,34.2,14.4,80,44,11,18.41,18.41,8,3,8,0.00
2014-7-14,71.8,62.4,57.6,46.3,32.7,14.4,66,36,11,18.41,18.41,11,3,11,0.00
2014-7-15,72.5,62.3,57.0,63.2,45.5,27.2,87,59,21,18.41,18.41,15,4,15,0.00
2014-7-16,68.9,61.9,59.2,56.1,44.4,27.8,84,57,22,18.41,18.41,15,6,15,0.00
2014-7-17,65.1,60.8,59.2,54.4,43.9,30.9,80,56,28,18.41,18.41,14,6,14,0.00
2014-7-18,67.3,61.3,59.0,52.5,40.5,26.6,76,50,22,18.41,18.41,13,5,13,0.00
2014-7-19,68.7,62.1,59.0,51.9,40.6,25.8,71,48,22,18.41,18.41,15,4,15,0.00
2014-7-20,68.0,61.8,59.2,56.3,43.8,29.6,81,55,24,18.41,18.41,12,4,12,0.00
2014-7-21,69.6,63.3,59.9,55.0,40.9,22.0,73,47,20,18.41,18.41,13,4,13,0.00
2014-7-22,71.4,63.9,59.7,47.3,36.4,15.4,57,39,12,18.41,18.41,15,4,15,0.00
2014-7-23,73.4,66.5,61.3,47.7,36.5,20.9,56,36,14,18.41,18.41,10,3,10,0.00
2014-7-24,84.4,69.0,59.7,49.7,28.4,8.5,61,29,6,18.41,18.41,8,2,8,0.00
2014-7-25,88.2,70.0,57.9,46.0,25.5,8.6,54,26,5,18.41,18.41,8,1,8,0.00
2014-7-26,73.0,63.8,57.7,45.9,32.4,14.4,56,35,11,18.41,18.41,8,2,8,0.00
2014-7-27,75.2,63.8,58.6,45.4,34.9,14.4,59,39,10,18.41,18.41,9,3,9,0.00
2014-7-28,67.8,61.3,58.1,50.9,39.1,27.3,73,47,23,18.41,18.41,12,4,12,0.00
2014-7-29,75.0,63.6,58.1,57.3,36.1,9.8,78,44,11,18.41,18.41,9,3,9,0.00
2014-7-30,73.0,62.0,57.9,54.8,39.0,14.4,78,48,11,18.41,18.41,8,3,8,0.00
2014-7-31,70.2,61.7,57.4,52.8,38.9,18.5,77,49,14,18.41,18.41,9,3,9,0.00
2014-8-1,71.2,62.2,57.2,51.9,36.4,18.5,68,42,14,18.41,18.41,11,2,11,0.00
2014-8-2,66.0,59.5,57.0,52.7,41.5,27.2,78,55,24,18.41,18.41,12,5,12,0.00
2014-8-3,63.9,58.5,57.2,52.3,42.9,26.8,82,59,25,18.41,18.41,13,5,13,0.00
2014-8-4,68.5,59.9,56.8,53.6,42.5,25.8,81,56,22,18.41,18.41,11,4,11,0.00
2014-8-5,74.3,64.3,59.0,54.0,38.9,19.6,70,43,13,18.41,18.41,8,2,8,0.00
2014-8-6,74.5,65.4,58.3,50.6,36.2,16.3,56,37,13,18.41,18.41,9,2,9,0.00
2014-8-7,66.7,60.8,57.9,50.1,38.4,26.4,70,47,23,18.41,18.41,10,4,10,0.00
2014-8-8,69.6,61.6,57.0,40.1,31.2,18.2,52,34,15,18.41,18.41,10,4,10,0.00
2014-8-9,62.8,57.7,56.1,45.4,37.3,26.5,66,47,26,18.41,18.41,13,5,13,0.00
2014-8-10,67.5,60.3,56.3,47.9,38.7,23.7,71,48,20,18.41,18.41,13,5,13,0.00
2014-8-11,70.2,62.6,58.8,43.3,34.2,13.9,56,38,12,18.41,18.41,11,4,11,0.00
2014-8-12,69.6,62.0,58.3,41.6,32.6,18.2,51,35,15,18.41,18.41,12,6,12,0.00
2014-8-13,71.2,62.5,57.6,40.9,32.2,14.9,49,35,12,18.41,18.41,10,3,10,0.00
2014-8-14,70.5,61.4,57.2,50.9,38.2,14.9,72,47,12,18.41,18.41,9,3,9,0.00
2014-8-15,71.4,62.0,57.9,55.1,39.9,14.9,79,51,12,18.41,18.41,10,3,10,0.00
2014-8-16,70.9,61.7,57.7,52.5,38.3,18.5,74,47,14,18.41,18.41,9,3,9,0.00
2014-8-17,68.7,60.9,56.7,50.8,38.0,21.5,72,46,17,18.41,18.41,9,4,9,0.00
2014-8-18,61.7,58.7,57.2,53.6,45.4,33.2,80,63,35,18.41,18.41,12,4,12,0.00
2014-8-19,65.1,60.4,57.0,56.9,45.0,32.6,85,61,31,18.41,18.41,13,5,13,0.00
2014-8-20,64.8,61.0,59.4,49.2,41.8,29.9,67,50,28,18.41,18.41,14,6,14,0.00
2014-8-21,72.0,63.6,59.0,57.2,39.7,18.5,78,48,14,18.41,18.41,9,3,9,0.00
2014-8-22,68.4,61.7,58.6,53.0,40.9,27.5,79,50,22,18.41,18.41,13,5,13,0.00
2014-8-23,70.2,62.5,58.5,39.5,30.7,13.8,48,33,12,18.41,18.41,12,4,12,0.00
2014-8-24,69.4,62.1,58.1,40.7,32.0,14.6,50,35,12,18.41,18.41,13,5,13,0.00
2014-8-25,67.3,61.3,58.8,38.9,32.3,17.1,46,35,15,18.41,18.41,13,6,13,0.00
2014-8-26,72.7,63.6,58.5,40.8,29.6,14.1,48,31,11,18.41,18.41,10,4,10,0.00
2014-8-27,76.8,65.2,59.4,45.4,34.1,14.4,54,37,10,18.41,18.41,8,3,8,0.00
2014-8-28,73.9,63.2,58.6,51.1,37.6,14.8,71,44,11,18.41,18.41,9,3,9,0.00
2014-8-29,72.0,62.3,58.5,54.5,42.1,23.1,75,51,16,18.41,18.41,10,3,10,0.00
2014-8-30,75.6,65.0,59.5,50.3,34.4,14.4,62,37,10,18.41,18.41,10,2,10,0.00
2014-8-31,76.1,65.1,59.4,50.8,32.7,14.4,69,36,10,18.41,18.41,9,3,9,0.00
2014-9-1,84.2,67.0,57.4,45.7,28.2,8.6,53,29,6,18.41,18.41,7,2,7,0.00
2014-9-2,63.1,60.4,58.6,49.0,41.8,34.8,69,51,36,18.41,18.41,12,5,12,0.00
2014-9-3,71.1,62.8,59.0,49.6,38.6,18.6,70,46,14,18.41,18.41,10,4,10,0.00
2014-9-4,68.7,61.9,58.8,47.4,39.3,21.6,64,46,17,18.41,18.41,12,4,13,0.00
2014-9-5,68.5,61.2,58.3,46.7,35.7,21.0,62,41,17,18.41,18.41,10,4,10,0.00
2014-9-6,70.0,61.3,56.8,40.8,30.9,13.5,51,35,12,18.41,18.41,10,4,10,0.00
2014-9-7,70.2,60.4,55.2,38.9,30.4,12.8,52,36,12,18.41,18.41,10,3,10,0.00
2014-9-8,65.8,58.8,55.4,37.0,29.3,15.8,47,35,15,18.41,18.41,13,5,13,0.00
2014-9-9,72.0,61.4,56.7,40.9,32.1,14.4,52,36,11,18.41,18.41,9,3,9,0.00
2014-9-10,86.2,65.8,55.9,53.9,31.7,8.8,67,37,6,18.41,18.41,6,1,6,0.00
2014-9-11,82.0,65.7,57.2,52.7,30.2,9.6,64,32,7,18.41,18.41,6,1,6,0.00
2014-9-12,80.2,64.8,57.9,54.3,34.7,9.6,69,40,7,18.41,18.41,6,1,7,0.00
2014-9-13,74.7,63.1,58.8,51.2,38.4,14.4,70,45,11,18.41,18.41,9,2,9,0.00
2014-9-14,73.4,63.4,58.1,44.2,33.0,10.4,59,37,9,18.41,18.41,10,2,10,0.00
2014-9-15,73.9,64.1,59.4,45.8,34.1,14.4,58,37,11,18.41,18.41,10,3,10,0.00
2014-9-16,77.5,65.7,57.7,48.1,33.7,14.5,59,37,10,18.41,18.41,7,2,8,0.00
2014-9-17,73.2,65.9,60.4,47.3,33.9,14.4,57,35,11,18.41,18.41,11,4,11,0.00
2014-9-18,72.7,67.1,63.0,57.3,44.3,30.8,70,46,22,18.41,18.41,10,2,11,0.08
2014-9-19,69.1,63.9,61.3,53.2,46.3,34.2,71,54,28,18.41,18.41,8,2,8,0.00
2014-9-20,65.8,62.3,60.8,54.0,46.3,36.1,74,58,34,18.41,18.41,10,4,11,0.00
2014-9-21,67.1,62.9,61.0,44.4,40.6,33.8,53,44,29,18.41,18.41,10,5,11,0.00
2014-9-22,74.7,65.2,59.2,45.0,33.0,14.4,55,34,11,18.41,18.41,8,2,8,0.00
2014-9-23,73.6,64.8,57.7,48.1,38.5,23.4,56,40,16,18.41,18.41,8,2,8,0.00
2014-9-24,73.0,66.5,63.0,58.0,46.1,30.8,73,51,22,18.41,18.41,10,2,10,0.00
2014-9-25,71.4,62.9,57.2,51.7,37.5,14.5,68,44,12,18.41,18.41,10,2,10,0.39
2014-9-26,71.6,63.5,57.6,49.6,31.9,8.5,67,37,9,18.41,18.41,12,2,12,0.00
2014-9-27,71.4,62.8,56.5,44.2,30.2,12.1,53,33,12,18.41,18.41,10,2,10,0.00
2014-9-28,68.9,62.1,58.3,40.2,35.5,21.6,50,38,20,18.41,18.41,8,2,9,0.00
2014-9-29,66.7,60.9,58.1,50.7,40.6,28.1,72,50,24,18.41,18.41,10,2,10,0.00
2014-9-30,72.5,63.9,57.6,51.0,32.5,11.5,69,37,11,18.41,18.41,8,2,8,0.00
2014-10-1,86.9,71.3,58.8,24.7,11.2,6.7,25,10,6,18.41,18.41,9,2,10,0.00
2014-10-2,89.2,74.8,60.6,12.5,9.7,6.0,12,8,5,18.41,18.41,10,2,10,0.00
2014-10-3,95.2,79.4,68.7,12.5,9.7,6.1,10,7,4,18.41,18.41,10,2,10,0.00
2014-10-4,92.3,78.3,66.7,12.5,10.1,6.1,10,8,4,18.41,18.41,8,1,8,0.00
2014-10-5,90.3,75.6,65.1,12.5,9.8,7.2,10,8,5,18.41,18.41,4,0,6,0.00
2014-10-6,87.1,66.8,54.9,37.5,22.0,6.3,47,22,6,18.41,18.41,5,0,5,0.00
2014-10-7,73.8,61.5,55.9,52.9,35.5,14.4,70,44,11,18.41,18.41,7,1,7,0.00
2014-10-8,77.7,63.4,55.9,43.8,32.7,9.6,61,38,8,18.41,18.41,6,1,6,0.00
2014-10-9,66.2,59.8,56.7,50.7,39.6,25.8,74,50,23,18.41,18.41,9,2,9,0.00
2014-10-10,66.2,59.0,55.8,47.4,37.6,23.5,71,48,20,18.41,18.41,8,2,8,0.00
2014-10-11,75.2,61.9,55.6,46.6,33.2,9.7,67,41,9,18.41,18.41,7,1,7,0.00
2014-10-12,91.0,74.1,60.1,34.9,12.7,6.7,37,11,5,18.41,18.41,11,1,11,0.00
2014-10-13,78.4,67.2,58.8,48.6,22.0,6.7,68,25,8,18.41,18.41,10,2,10,0.00
2014-10-14,68.4,61.8,58.3,48.5,34.0,13.4,68,37,15,18.41,18.41,17,4,17,0.00
2014-10-15,67.5,61.9,56.3,48.9,37.2,20.3,68,43,17,18.41,18.41,10,2,10,0.24
2014-10-16,69.1,59.3,53.6,40.2,28.3,6.9,49,34,10,18.41,18.41,8,1,8,0.00
2014-10-17,73.0,62.2,53.4,36.8,20.8,6.8,47,24,9,18.41,18.41,8,1,8,0.00
2014-10-18,76.3,65.3,59.2,40.7,29.0,9.2,44,29,8,18.41,18.41,6,1,6,0.00
2014-10-19,70.9,63.0,59.0,52.7,39.5,26.0,65,44,19,18.41,18.41,8,2,8,0.00
2014-10-20,66.0,61.0,55.9,49.5,36.8,26.6,63,41,23,18.41,18.41,11,2,11,0.00
2014-10-21,68.9,59.4,52.9,39.9,21.8,6.7,58,28,10,18.41,18.41,9,2,9,0.00
2014-10-22,71.1,61.1,53.8,37.5,25.0,8.5,41,28,9,18.41,18.41,7,1,7,0.00
2014-10-23,72.0,63.2,57.9,45.1,34.8,14.4,54,37,11,18.41,18.41,10,1,10,0.00
2014-10-24,68.9,61.7,57.2,36.0,29.0,12.7,38,30,12,18.41,18.41,10,3,10,0.00
2014-10-25,66.6,61.7,56.8,51.2,36.7,26.3,72,42,23,18.41,18.41,13,4,13,0.28
2014-10-26,68.7,58.6,52.7,40.9,23.3,6.1,63,31,10,18.41,18.41,8,3,10,0.00
2014-10-27,67.6,58.2,50.9,27.9,19.5,6.7,39,25,10,18.41,18.41,9,2,9,0.00
2014-10-28,72.3,60.7,51.6,27.0,17.4,6.7,37,21,9,18.41,18.41,8,2,8,0.00
2014-10-29,81.7,67.4,56.7,32.3,16.1,6.7,37,17,7,18.41,18.41,10,1,10,0.00
2014-10-30,71.2,63.6,59.5,50.6,23.0,6.4,70,28,9,18.41,18.41,10,2,10,0.00
2014-10-31,60.4,57.7,54.0,47.0,39.3,30.6,64,51,36,18.41,18.41,10,1,10,0.28
2014-11-1,63.7,55.8,51.4,30.9,22.6,6.0,42,29,11,18.41,18.41,11,2,11,0.00
2014-11-2,66.2,55.4,48.6,34.9,18.3,3.7,49,27,10,18.41,18.41,9,2,9,0.00
2014-11-3,67.3,56.9,48.9,34.2,19.0,6.7,47,25,10,18.41,18.41,7,1,7,0.00
2014-11-4,72.9,60.3,50.9,39.9,18.8,6.0,57,26,9,18.41,18.41,9,1,9,0.00
2014-11-5,75.6,65.1,56.3,11.3,7.9,4.2,14,10,8,18.41,18.41,12,2,12,0.00
2014-11-6,72.9,62.9,56.3,33.0,17.9,8.5,40,19,9,18.41,18.41,6,1,6,0.00
2014-11-7,70.2,61.3,55.2,44.7,31.9,18.5,55,35,14,18.41,18.41,6,1,6,0.00
2014-11-8,77.9,66.6,57.7,34.4,19.2,6.7,40,20,8,18.41,18.41,10,1,10,0.00
2014-11-9,73.6,62.1,54.7,38.2,26.0,10.2,53,28,11,18.41,18.41,5,1,5,0.00
2014-11-10,62.2,57.7,54.7,42.5,36.9,30.1,57,46,34,18.41,18.41,8,2,8,0.00
2014-11-11,61.9,57.3,55.2,39.6,27.4,11.0,54,33,14,18.41,18.41,12,3,12,0.00
2014-11-12,65.1,58.1,54.7,30.1,17.4,6.7,38,21,10,18.41,18.41,8,2,8,0.00
2014-11-13,63.9,58.7,54.1,51.9,44.7,30.1,73,61,38,0.00,40.00,6,1,8,0.16
2014-11-14,65.1,57.4,52.7,50.3,36.7,26.7,70,49,24,18.41,18.41,8,1,8,0.00
2014-11-15,66.4,56.6,50.5,39.6,25.4,7.9,55,34,12,18.41,18.41,7,1,7,0.00
2014-11-16,60.6,55.1,50.4,28.5,8.7,2.5,41,17,12,18.41,18.41,13,3,13,0.00
2014-11-17,64.6,55.8,50.2,8.4,4.9,2.5,14,13,10,18.41,18.41,15,4,15,0.00
2014-11-18,60.1,55.2,50.4,7.8,4.7,3.0,16,13,12,18.41,18.41,14,4,14,0.00
2014-11-19,59.4,56.4,51.8,48.4,26.5,3.7,71,39,12,18.41,18.41,13,3,13,0.16
2014-11-20,57.6,54.4,52.2,48.4,44.3,38.7,73,69,58,18.41,18.41,10,0,10,0.71
2014-11-21,60.4,55.2,50.7,46.3,35.8,24.8,69,50,27,18.41,18.41,7,0,7,0.00
2014-11-22,64.4,58.0,51.3,54.8,34.9,17.0,75,45,16,18.41,18.41,15,4,15,0.24
2014-11-23,66.6,54.9,47.5,28.4,11.4,2.5,45,20,10,18.41,18.41,8,1,8,0.00
2014-11-24,67.5,56.1,45.5,12.5,5.5,0.8,25,13,10,18.41,18.41,7,1,7,0.00
2014-11-25,64.8,57.5,51.6,8.6,5.6,2.5,15,12,10,18.41,18.41,12,4,12,0.00
2014-11-26,69.1,59.7,54.3,20.2,9.4,4.4,26,14,10,18.41,18.41,11,3,11,0.00
2014-11-27,69.6,58.8,51.1,33.8,15.4,6.7,50,20,10,18.41,18.41,6,1,6,0.00
2014-11-28,62.8,55.1,49.3,46.4,32.7,15.1,66,45,16,18.41,18.41,7,1,7,0.00
2014-11-29,61.3,58.2,54.5,50.2,42.0,34.1,73,56,37,18.41,18.41,8,1,8,0.20
2014-11-30,59.9,55.1,51.3,46.0,36.5,24.2,69,51,27,18.41,18.41,10,1,10,0.59
2014-12-1,61.5,56.8,54.0,46.7,40.1,32.1,72,55,34,18.41,18.41,13,3,13,0.00
2014-12-2,60.3,56.3,54.1,48.6,41.3,33.9,72,58,37,18.41,18.41,15,4,15,1.38
2014-12-3,62.6,59.7,57.6,52.4,43.1,34.0,71,55,35,18.41,18.41,16,4,16,1.65
2014-12-4,65.8,59.5,56.8,51.0,43.3,28.8,72,57,25,18.41,18.41,8,1,8,0.31
2014-12-5,66.2,60.7,56.7,46.7,38.4,26.9,62,45,23,18.41,18.41,11,2,11,0.20
2014-12-6,64.4,59.6,57.2,52.8,44.7,35.3,70,59,36,18.41,18.41,8,1,8,0.35
2014-12-7,61.3,58.2,56.1,47.9,40.1,33.7,68,52,36,18.41,18.41,10,1,10,0.00
2014-12-8,67.6,61.6,57.7,41.7,34.7,24.7,53,38,20,30.14,30.08,6,1,6,0.00
2014-12-9,63.0,58.5,53.8,50.2,41.5,33.8,68,54,35,30.16,30.02,8,0,8,0.00
2014-12-10,62.1,58.1,53.6,48.8,38.7,27.0,72,51,28,30.02,29.66,15,3,15,0.00
2014-12-11,61.3,55.4,49.1,48.7,40.5,26.2,75,61,26,29.69,29.49,17,4,17,3.74
2014-12-12,56.3,50.5,48.0,47.0,39.3,33.1,73,66,50,30.02,29.60,3,0,4,0.28
2014-12-13,54.5,49.9,47.3,44.1,30.9,18.8,74,50,25,30.16,29.99,6,1,6,0.00
2014-12-14,58.5,49.9,47.1,32.8,24.9,12.5,54,38,17,30.08,29.93,10,3,10,0.00
2014-12-15,54.0,51.0,48.2,39.4,34.4,28.4,70,53,40,29.93,29.78,17,3,17,0.00
2014-12-16,59.9,52.9,48.0,41.3,30.4,13.7,63,44,17,29.90,29.75,12,3,12,0.79
2014-12-17,56.7,51.6,49.1,39.8,32.7,23.1,62,49,30,30.02,29.87,12,1,12,0.12
2014-12-18,60.4,53.5,50.2,42.5,32.9,23.6,59,46,25,30.11,29.96,12,1,12,0.04
2014-12-19,55.8,54.7,53.1,46.3,40.5,29.0,71,59,38,30.08,29.32,11,2,11,0.00
2014-12-20,59.4,56.1,54.0,50.4,43.0,33.0,74,63,42,29.47,29.35,7,1,7,0.00
2014-12-21,63.3,58.7,56.7,54.3,44.8,34.6,74,61,35,29.56,29.47,8,1,8,0.00
2014-12-22,64.4,58.2,54.0,52.7,40.1,22.3,73,54,23,29.53,29.41,9,2,9,0.00
2014-12-23,69.8,59.0,53.6,39.5,26.2,8.3,54,32,9,29.47,29.35,6,2,8,0.00
2014-12-24,58.3,52.5,43.9,49.3,30.1,8.0,73,45,19,29.35,29.21,15,3,15,0.00
2014-12-25,56.1,46.9,40.3,19.0,11.0,1.1,39,25,12,29.41,29.29,10,5,12,0.00
2014-12-26,59.0,48.7,42.8,14.3,1.6,-4.9,29,14,12,29.47,29.35,13,3,13,0.00
2014-12-27,53.4,46.8,42.1,15.6,4.0,-4.9,30,18,12,29.59,29.44,10,3,10,0.00
2014-12-28,57.6,48.8,41.9,30.6,17.3,7.2,50,30,14,29.56,29.41,8,2,8,0.00
2014-12-29,53.6,46.9,42.6,30.9,20.7,3.6,55,38,15,29.44,29.29,8,2,8,0.00
2014-12-30,52.5,45.0,39.7,19.5,1.4,-7.1,41,18,11,29.47,29.29,26,5,26,0.00
2014-12-31,57.2,46.6,39.0,5.2,-2.5,-7.5,14,12,11,29.44,29.23,17,3,17,0.00
2015-1-1,52.7,44.9,39.9,4.0,-3.2,-6.9,14,13,11,29.35,29.23,13,4,13,0.00
2015-1-2,54.1,43.7,37.2,5.0,-0.9,-7.5,24,15,12,29.38,29.26,9,2,9,0.00